星链-36131(STARLINK-36131)

导读

STARLINK-36131是美国SpaceX公司星链(Starlink)星座中的一员,于2025年12月11日发射升空。星链项目旨在构建全球卫星互联网星座,为全球偏远、欠发达地区以及海洋、航空等场景提供高速低延迟的宽带互联网接入服务。该卫星运行于近地轨道,是SpaceX持续扩张星链星座规模的组成部分,助力提升星座网络覆盖范围与服务容量,进一步巩固星链作为全球最大卫星星座的地位,推动全球互联基础设施建设。

基本信息
目录编号:
67032
目录名称:
STARLINK-36131
国际标识:
2025-294C
轨道中心:
EARTH
卫星名称:
星链-36131
卫星全名:
星链-36131(STARLINK-36131)
卫星状态:
在轨 (已飞行267 天)
发射日期:
2025-12-11 UTC
国别 :
美国 (US)
星等 :
--
轨道信息
数据来源 国际轨道数据
星历时间: 2026-09-04T00:17:48+0800
14小时前
查看轨道信息
半长轴: 6861.142km
偏心率: 0.000015
轨道倾角: 43.000°
近地点辐角 301.988°
升交点赤经 112.609°
平近点角 58.096°
近地点: 482.902km
远地点: 483.108km
周期: 94.266分钟
每日圈数: 15.27595
详细信息
固有亮度:
5
最大亮度:
2.5
卫星平台:
Starlink V1.0
覆盖范围:
全球
运营商:
太空探索技术公司
运营商所在国:
美国
制造商(研发单位):
太空探索技术公司
制造商所在国:
美国
使用方式:
暂无
卫星简介
Starlink 计划是 SpaceX 推出的全球卫星互联网项目,通过发射低轨道卫星,为全球尤其是偏远地区提供高速、低延迟的互联网服务。自 2019 年起,Starlink 已部署数千颗卫星,旨在缩小全球数字鸿沟,推动互联网普及。该项目还为军事、航空等行业提供通信支持,带来广泛经济效益。
2D轨道图
3D轨道图
轨道高度分析图
轨道倾角分析图
轨道综合分析图
查看轨道综合分析图
交会数据列表
事件ID 空间交会对象 最接近时刻(TCA) 交会距离 交会风险概率(CRP) 交会风险指数(CRI) 操作
CDM_260904-064205-548106-703221
2026-09-04T
06:42:50+0000
0.948 km
远距离
1.530397E-5 中风险 0.59
CDM_260905-000206-697906-703221
2026-09-05T
00:02:53+0000
0.820 km
远距离
1.072615E-5 中风险 0.56
CDM_260905-004906-697906-703221
2026-09-05T
00:49:58+0000
0.887 km
远距离
8.237152E-6 低风险 0.53
CDM_260904-024705-548106-703223
2026-09-04T
02:47:27+0000
1.342 km
极远距离
4.665323E-6 低风险 0.48
CDM_260904-011305-548106-703221
2026-09-04T
01:13:18+0000
1.414 km
极远距离
3.933215E-6 低风险 0.47
CDM_260905-050306-196306-703221
2026-09-05T
05:03:38+0000
1.641 km
极远距离
3.841016E-6 低风险 0.47
CDM_260905-015505-629506-703221
2026-09-05T
01:55:58+0000
1.864 km
极远距离
2.67735E-6 低风险 0.44
CDM_260904-050805-548106-703221
2026-09-04T
05:08:41+0000
1.691 km
极远距离
2.281617E-6 低风险 0.42
CDM_260905-032906-196306-703221
2026-09-05T
03:29:29+0000
1.978 km
极远距离
2.276421E-6 低风险 0.42
CDM_260903-045605-694406-703223
2026-09-03T
04:56:15+0000
2.061 km
极远距离
2.245807E-6 低风险 0.42